ONEWEB-0128 (47274 NORAD) Tracking and Keplerian Element Data

This shows tracking and keplerian element data for the satellite.

Feedback or suggestion? Click here.




ElementValue
Catalog47274
NameONEWEB-0128
Epoch Orbit172
Epoch Day60.91667824
Epoch Year2021
RAAN16.1964
Inclination87.6872
Eccentricity0.001214
Argument of Perigee5.5495
Mean Anonmoly222.7993
Mean Motion14.01396748
Decay Rate-0.01240391
L11 47274U 20100S 21060.91667824 -.01240391 00000-0 -87558+0 0 9993
L22 47274 87.6872 16.1964 0012140 5.5495 222.7993 14.01396748 1724

Live tracking and technical data element details for ONEWEB-0128 (NORAD 47274). ONEWEB-0128 can be tracked NOW for your location showing map with azimuth and elevation plus other details from your city location.

Track the satellite on the map from your city or location and see movement details for azimuth, elevation, latitude, longitude, range, height, and movement on the map or in text.







IsCatalogInMostPopularTable: catalog: 47274, numindb: 23
Update: records affected: 1



GetName: 47274 ONEWEB-0128

Hit Count: updated at: Tue, 02 Mar 2021 14:08:42 GMT